GFSSW_250_rhum_342.txt.gz
RH
100 100 100 90 66 35 29 28 28 32 36 38 35 37 39 41 44 50 38 47 58 70 51 95 98 86 100 67 54 68 64 48 45 33 26 39 55 70 82 87 75 75 72 20 14
75 76 91 95 96 90 58 49 41 44 43 43 73 100 86 90 100 100 99 93 96 100 100 100 100 84 68 100 75 86 80 71 69 36 26 31 30 60 60 66 87 92 89 79 31
80 73 62 63 76 80 94 89 86 79 80 78 86 100 100 99 92 100 99 100 100 98 89 100 100 100 100 90 100 95 83 68 62 71 40 30 45 25 39 41 63 100 100 98 94
100 87 87 81 64 59 78 82 80 88 90 85 94 100 97 92 100 95 97 100 100 89 94 98 84 99 100 99 93 100 91 73 69 88 76 44 38 32 27 28 37 88 100 100 100
83 92 100 100 100 90 78 82 69 58 60 58 65 86 74 72 67 66 70 80 82 82 82 80 75 75 79 82 87 83 80 77 73 64 99 88 76 54 36 25 33 61 100 100 100
30 63 76 92 100 100 100 100 100 96 87 62 57 62 62 55 54 50 43 49 55 53 68 74 76 71 59 60 62 67 61 62 61 52 56 89 65 79 88 66 30 40 95 97 99
18 19 42 66 74 90 100 99 100 100 100 98 85 58 59 56 52 52 44 39 43 46 39 53 54 59 53 51 52 48 48 50 49 56 47 39 55 51 54 82 80 54 63 100 100
19 18 19 22 45 61 62 77 76 73 72 76 72 55 48 44 49 40 41 32 36 34 33 44 56 51 46 38 47 40 37 45 47 47 42 56 60 57 59 57 88 80 97 100 100
14 16 17 19 19 19 38 56 49 53 61 63 65 77 69 53 40 39 40 36 35 38 35 31 31 47 48 46 39 30 35 38 42 34 43 52 76 71 70 58 75 67 79 100 100
16 16 14 14 16 19 18 18 38 43 36 40 40 49 62 68 73 53 48 46 39 35 37 38 38 51 52 46 36 36 40 44 48 32 52 48 83 85 77 73 64 63 75 100 100
23 20 20 16 16 14 16 19 17 16 17 22 26 39 30 44 60 92 86 84 70 42 59 48 40 50 39 43 37 41 57 42 41 74 69 49 76 67 79 50 70 64 72 100 100
27 26 24 25 20 19 16 16 18 19 19 17 16 16 18 26 35 24 58 62 70 68 60 52 49 50 48 55 52 55 50 37 45 69 70 96 70 79 94 82 84 88 81 96 100
39 33 27 26 26 24 21 18 16 16 17 19 18 18 17 15 15 16 16 20 31 38 52 49 73 63 88 74 56 43 45 52 84 51 64 94 85 69 87 100 100 92 89 92 97
36 36 34 28 32 35 26 21 19 17 15 18 19 20 18 18 18 16 17 14 14 10 57 100 90 85 58 55 47 37 54 74 54 53 86 100 100 82 91 100 100 100 86 96 100
39 39 40 36 33 33 29 28 22 23 16 19 20 25 22 23 20 17 20 17 18 20 17 13 20 41 42 42 52 52 49 59 68 58 75 87 76 79 95 100 100 100 100 100 100
44 44 44 45 43 40 40 33 32 22 24 21 29 34 30 28 25 22 24 21 20 18 17 14 30 74 95 89 85 96 68 66 72 48 49 44 49 81 88 97 100 100 100 100 98
41 52 50 50 53 49 44 46 34 30 30 25 27 39 44 38 31 28 31 29 22 23 20 17 25 71 78 46 29 30 96 85 66 38 37 41 37 57 95 97 100 100 100 100 100
65 49 55 57 71 66 53 47 42 39 46 30 26 30 49 51 42 32 32 36 34 28 23 21 20 18 19 16 19 22 56 89 73 56 46 43 39 61 63 84 99 100 100 100 94
73 70 65 64 66 86 71 48 56 51 50 42 29 31 68 81 78 46 39 41 37 40 33 28 26 22 20 20 21 22 32 37 32 22 38 62 50 46 53 62 68 87 87 100 100
97 86 79 70 68 70 72 69 60 66 60 46 46 34 47 99 86 64 46 47 43 36 39 34 33 34 29 24 24 22 20 19 22 33 53 77 58 47 51 41 56 86 58 66 79
90 94 84 75 72 69 61 70 73 82 62 56 50 46 37 96 90 98 71 57 52 34 36 41 38 48 43 31 30 28 34 26 56 95 99 80 60 49 45 42 90 100 90 50 52
87 80 77 78 73 72 65 72 88 83 71 56 59 62 58 44 95 91 95 71 56 52 40 50 44 51 65 38 39 33 36 46 77 82 93 90 73 52 41 62 100 100 100 84 74
66 67 60 65 71 77 76 78 91 92 87 67 74 80 69 56 65 96 100 84 65 54 50 52 44 48 62 52 40 40 38 42 46 37 51 81 52 47 43 59 97 100 100 80 87
49 55 57 63 64 69 74 80 91 100 97 77 90 97 93 67 56 75 100 95 79 65 50 54 41 40 61 55 44 47 41 53 46 67 73 48 67 53 68 63 76 86 91 96 91
63 62 82 79 68 75 77 89 91 100 100 96 88 98 93 80 62 50 95 100 94 76 60 50 52 52 55 54 51 49 45 46 44 41 37 33 36 45 77 74 73 73 70 89 80
80 81 99 93 95 92 89 84 86 98 97 91 76 95 100 78 61 66 47 100 100 89 79 60 52 56 51 50 56 55 50 46 45 43 40 37 36 42 69 93 81 63 64 65 60
62 74 73 95 95 96 92 96 95 87 94 98 85 89 94 98 74 68 56 55 100 100 91 82 63 56 57 59 55 61 46 50 52 46 40 39 40 34 34 32 34 47 60 58 51

GFSSW_250_rhum_345.txt.gz
RH
79 78 88 91 83 57 36 34 32 29 27 25 22 22 31 33 34 35 38 40 48 73 69 89 72 100 85 97 100 77 66 56 59 49 35 32 29 21 23 33 77 61 55 79 98
77 78 73 83 83 79 89 72 57 42 38 31 27 23 24 34 36 76 90 87 100 100 98 91 73 70 100 100 85 80 80 75 78 56 65 68 42 30 25 26 38 45 43 57 52
75 54 60 68 75 80 74 82 70 67 67 65 42 43 35 43 49 60 100 100 100 100 92 90 95 66 100 100 100 94 73 89 92 92 74 92 83 46 44 37 35 32 32 40 55
100 99 73 54 54 59 64 72 77 76 62 73 68 54 56 58 56 76 99 100 96 96 100 92 88 87 98 83 100 100 100 100 99 97 84 80 70 93 80 69 70 64 35 36 44
66 96 100 96 66 51 47 46 47 56 61 69 74 81 86 84 95 98 99 98 88 86 82 70 78 82 86 84 75 70 89 92 89 84 72 73 58 47 68 76 74 81 75 60 71
37 50 71 88 100 100 85 72 56 38 42 44 52 66 71 71 75 77 75 76 66 73 60 52 56 54 57 56 70 78 68 56 63 65 64 66 47 50 45 48 61 61 64 89 94
22 20 26 41 56 73 96 94 88 84 71 62 49 55 52 53 65 72 64 72 65 55 42 43 62 59 44 37 34 47 52 50 42 49 51 58 60 57 66 46 49 51 71 77 88
15 18 20 20 22 34 42 58 86 98 100 98 95 81 67 75 71 71 70 66 62 60 54 51 47 44 37 36 33 34 27 38 43 40 40 61 64 48 58 69 60 59 64 81 93
14 14 15 17 19 20 22 26 30 52 73 93 100 100 98 98 93 87 86 74 62 53 38 30 33 40 46 51 45 38 36 31 38 32 38 56 45 51 50 58 60 76 62 71 86
18 19 16 15 16 15 17 19 20 19 32 56 75 83 88 89 76 63 57 57 51 54 62 52 35 33 60 66 46 43 48 53 41 37 39 30 49 52 36 48 74 78 67 61 73
22 21 22 20 20 16 15 13 15 16 19 19 24 45 59 51 48 57 49 55 55 55 50 42 58 70 66 64 57 60 65 62 70 49 44 42 56 36 34 65 76 92 93 92 90
24 26 26 26 25 25 19 16 14 14 14 16 17 18 20 40 56 51 37 34 36 48 54 56 65 70 73 73 60 56 56 47 64 66 68 53 49 36 62 76 89 88 100 100 96
28 31 31 30 32 30 30 27 22 20 16 14 15 17 18 17 16 22 24 30 32 27 28 34 52 50 58 62 61 54 49 46 47 63 59 62 51 51 69 96 100 98 100 100 100
28 28 31 34 37 34 29 30 28 26 23 22 16 17 16 20 18 17 16 16 17 16 19 20 24 25 30 34 36 43 60 70 60 54 55 63 81 72 98 95 100 100 100 100 100
31 30 30 30 34 37 36 31 30 31 30 27 26 22 17 20 22 19 18 18 20 17 15 15 15 16 17 17 79 100 96 83 72 50 63 78 59 83 90 62 100 100 100 100 100
35 34 35 32 36 34 35 38 36 31 33 30 28 29 24 20 26 24 20 21 22 21 20 17 16 16 16 17 19 37 37 37 65 82 63 96 66 98 73 49 61 100 100 100 100
46 44 42 36 38 38 36 35 40 31 34 38 33 27 29 25 22 26 26 26 24 21 24 20 20 20 19 19 24 36 82 94 88 66 54 79 85 77 75 53 53 78 97 100 98
46 51 45 48 48 42 42 43 41 42 43 43 43 36 31 31 26 24 28 29 30 26 28 25 26 25 26 22 18 20 32 94 90 42 22 55 95 79 66 56 47 50 89 100 97
53 53 51 48 60 60 48 48 50 51 52 48 55 46 43 38 34 26 27 39 42 37 29 32 37 29 30 31 27 22 23 21 22 19 31 58 72 54 39 40 51 52 63 64 90
49 66 63 64 59 58 55 54 53 75 64 58 63 58 52 50 37 32 27 40 63 54 39 34 37 42 40 37 36 28 28 24 22 25 24 23 20 20 21 40 62 52 52 42 37
52 53 72 84 78 70 63 57 71 81 78 70 58 73 61 54 45 37 32 39 70 73 51 39 42 56 58 53 40 39 38 31 31 32 31 29 37 70 81 82 63 50 41 34 26
65 77 75 78 85 84 71 66 79 99 84 78 71 68 66 64 47 44 42 35 71 68 67 55 41 48 66 61 49 48 44 36 43 50 74 75 87 98 94 81 66 57 50 36 30
71 66 90 72 60 63 66 64 80 100 90 82 80 73 71 64 67 46 48 46 39 88 85 77 50 56 65 70 76 46 49 65 50 49 48 60 57 74 83 67 54 63 69 77 85
56 67 65 61 61 62 61 68 80 99 95 78 82 84 77 67 67 66 56 57 42 69 96 83 60 55 68 75 67 51 58 60 53 51 50 98 77 92 78 70 65 66 99 97 84
63 59 50 49 58 51 61 67 89 99 87 80 78 80 78 78 80 75 57 70 54 46 86 98 75 67 68 75 69 58 58 53 56 50 70 58 66 52 44 52 48 61 86 96 81
50 31 37 43 44 41 53 56 90 89 84 83 70 72 80 83 83 78 71 68 74 53 67 100 95 85 70 71 72 63 60 57 59 52 66 50 44 42 38 39 50 68 74 68 60
32 34 33 47 47 46 47 54 63 64 60 71 72 87 89 93 83 70 75 72 87 71 56 96 100 97 85 76 72 62 75 66 52 63 59 54 48 45 43 40 37 36 34 39 54

GFSSW_250_rhum_348.txt.gz
RH
94 88 75 72 53 41 37 33 28 27 29 28 28 26 26 25 27 28 37 31 32 33 36 54 100 100 100 100 100 94 94 87 77 93 72 76 74 68 58 39 36 38 30 30 25
95 90 85 79 63 50 45 48 44 37 28 26 25 25 24 25 24 22 20 25 29 50 85 78 74 65 99 100 100 84 86 95 90 92 100 96 86 84 76 86 60 51 46 38 36
85 82 71 87 86 80 73 62 50 62 64 63 37 44 38 39 37 24 25 26 30 34 76 96 100 77 84 100 100 100 86 100 91 94 100 100 83 84 70 55 70 75 57 51 45
100 100 94 72 70 71 73 67 62 65 66 58 59 58 53 46 49 53 39 36 34 37 40 60 72 91 93 91 95 91 84 99 100 100 99 92 89 72 56 49 53 46 51 62 54
83 98 100 100 100 78 64 57 56 63 61 63 62 66 66 66 70 63 58 46 49 56 57 66 82 72 70 64 56 60 68 66 68 74 80 73 69 65 56 48 51 55 52 42 54
51 61 77 96 99 99 86 70 66 63 53 46 50 53 52 54 59 60 58 65 66 71 67 66 64 53 51 56 49 43 37 41 39 37 44 49 57 61 54 46 57 59 52 49 46
20 22 38 47 72 82 82 93 99 91 74 64 50 41 37 38 43 49 49 49 52 59 45 53 59 55 40 46 42 39 36 32 42 48 45 45 45 51 50 45 60 64 45 54 54
12 14 20 22 25 36 46 59 74 86 94 99 93 86 62 67 41 44 46 51 48 51 53 60 60 61 48 38 42 40 33 34 43 41 45 52 49 46 50 38 52 53 52 47 54
17 14 13 11 16 21 22 23 33 53 68 70 79 93 97 100 73 69 65 52 55 59 50 52 72 74 75 59 44 35 36 31 31 48 47 54 50 61 60 47 50 55 62 61 52
19 17 15 14 12 12 14 18 20 20 25 32 42 52 59 80 98 100 97 96 92 75 76 74 68 87 79 52 37 38 45 33 39 51 58 52 62 56 59 56 52 65 74 79 69
21 18 17 17 15 14 14 13 13 17 18 20 20 24 30 35 43 60 86 100 100 100 98 91 77 62 49 54 63 46 38 49 75 62 51 50 45 58 55 60 51 74 82 84 76
26 21 19 20 20 19 18 19 17 14 14 16 17 18 19 21 22 26 41 61 69 74 72 63 56 49 50 51 49 44 53 62 69 65 61 54 44 72 72 67 72 80 72 94 71
26 23 22 22 23 25 24 25 24 21 22 18 18 16 15 16 19 20 19 20 26 37 43 38 39 44 43 41 36 42 46 50 55 50 48 48 54 78 89 76 73 77 98 95 83
24 22 22 24 24 26 25 25 27 32 34 31 26 24 18 17 16 16 16 18 20 20 20 28 36 32 29 30 31 30 34 35 30 31 33 39 97 85 74 77 63 84 90 81 86
36 30 27 28 26 26 27 26 28 25 27 33 31 32 27 24 21 16 15 17 18 18 18 19 19 19 18 19 20 21 19 17 16 19 86 100 85 80 73 70 60 98 100 72 65
45 48 43 40 38 36 34 32 31 28 30 29 30 36 34 31 30 25 19 17 18 19 19 21 22 20 20 18 18 18 19 18 15 15 16 40 27 85 95 94 86 88 99 100 83
29 30 34 37 36 37 36 38 37 34 32 31 31 30 36 37 33 32 27 23 20 18 21 21 20 22 23 21 18 17 19 22 22 20 26 46 85 91 97 79 91 81 69 65 77
28 28 30 32 35 34 37 41 36 36 40 38 35 39 33 39 38 32 34 26 25 22 21 23 25 26 27 24 22 22 23 23 22 26 28 40 82 95 81 70 70 96 87 72 56
32 30 30 33 37 39 37 39 41 43 48 45 42 41 42 37 40 36 36 36 29 25 25 24 30 34 30 29 28 32 28 23 25 29 26 24 26 34 39 67 97 97 70 49 61
40 40 37 33 40 45 46 41 45 52 50 50 51 54 51 46 41 50 43 50 50 36 28 26 24 39 39 32 35 42 30 35 35 31 32 27 24 24 30 33 34 34 42 63 80
48 46 43 40 39 35 40 40 52 54 54 53 57 52 55 54 55 47 58 56 60 48 32 28 26 38 47 42 44 41 46 49 43 44 42 40 32 26 24 29 35 42 57 84 74
49 46 46 41 36 39 36 51 52 56 55 52 69 71 56 59 62 63 60 74 71 63 40 32 30 28 46 51 46 52 74 63 53 55 49 53 61 40 73 80 82 84 88 82 67
45 43 43 44 40 47 53 66 69 69 55 58 70 82 80 71 65 75 71 84 84 76 53 40 28 29 41 61 68 81 62 61 66 60 65 49 89 44 94 96 82 89 84 71 65
60 60 65 53 56 67 65 68 63 58 55 61 77 91 90 81 65 82 89 82 93 74 68 51 29 34 56 94 80 62 59 64 75 72 60 73 77 59 87 100 100 100 97 78 67
62 68 68 71 64 64 60 58 49 50 58 62 83 74 76 87 75 75 100 90 98 88 66 56 44 44 48 100 86 71 70 65 72 82 71 81 66 69 97 92 94 84 84 82 72
60 64 61 58 62 52 48 53 49 52 56 53 65 78 72 76 78 75 100 100 100 100 86 61 61 57 50 93 98 84 75 67 70 87 69 75 72 53 90 64 48 45 55 80 99
57 59 57 57 52 52 53 55 54 70 65 63 66 64 65 72 74 88 99 100 99 97 100 82 66 68 61 57 89 61 87 87 82 79 70 80 84 55 72 55 48 43 42 48 86

GFSSW_250_rhum_351.txt.gz
RH
100 99 83 66 62 47 45 49 53 51 47 40 35 34 35 30 28 25 23 29 34 38 38 32 68 100 100 99 96 88 82 96 85 85 84 72 90 100 98 83 61 49 47 44 40
100 94 95 93 70 64 66 54 44 41 42 40 34 30 29 30 27 25 21 20 21 20 21 22 37 99 100 100 99 100 100 100 93 100 100 88 99 100 100 82 59 47 44 40 40
84 89 100 90 82 85 78 65 51 48 40 34 31 31 29 26 22 22 23 20 20 19 19 20 27 34 65 98 100 100 99 97 100 100 100 97 100 93 88 71 60 55 47 40 46
100 93 76 94 98 88 75 68 70 67 66 65 55 42 39 40 33 33 24 21 23 21 20 22 25 30 36 56 83 91 91 86 81 76 66 61 64 73 77 58 48 50 47 38 43
97 100 100 88 80 82 75 77 74 65 74 83 74 61 53 41 41 46 37 32 30 34 28 22 29 29 38 61 73 68 58 58 56 46 43 48 48 48 52 53 50 47 51 48 49
56 74 83 100 98 89 80 77 59 58 62 61 65 66 57 58 58 56 60 53 48 45 44 38 37 46 50 62 61 58 48 45 48 51 46 40 40 42 44 43 34 37 44 56 54
17 30 47 57 70 92 96 96 94 84 75 61 58 58 53 56 56 56 53 53 52 49 43 40 42 41 42 46 42 46 43 31 37 45 44 36 34 40 39 43 37 35 42 57 43
18 18 19 26 31 37 47 54 82 94 93 98 90 84 72 77 54 46 44 46 44 40 40 40 38 37 37 38 40 40 38 39 46 49 45 39 43 41 43 62 47 34 45 64 47
17 16 15 16 20 21 21 25 32 39 56 85 85 76 87 97 83 74 66 59 60 50 47 42 44 42 40 35 33 35 36 52 59 58 45 45 34 39 47 56 50 46 51 59 44
19 18 18 16 14 13 14 16 19 21 22 27 38 43 50 63 72 80 82 77 71 64 65 65 54 60 69 47 47 57 63 63 70 54 50 47 40 42 57 55 50 52 61 76 70
24 24 22 20 17 16 14 13 12 11 13 17 21 22 25 32 38 48 56 58 64 72 78 82 88 99 79 86 78 73 74 78 60 45 48 41 48 52 59 65 56 62 60 75 94
28 27 25 24 22 19 18 16 16 14 12 12 13 15 18 20 21 23 25 28 37 43 51 52 57 59 87 100 100 96 84 58 46 45 39 41 47 71 77 72 66 73 76 87 89
20 23 24 24 24 23 20 18 19 19 18 16 14 14 14 15 17 20 21 21 22 23 24 26 34 41 57 66 60 55 50 44 41 40 37 37 40 48 43 43 55 68 92 84 69
23 25 26 26 26 28 25 24 21 23 24 23 22 21 20 18 16 15 16 18 18 18 20 22 22 21 21 29 32 37 35 36 36 34 28 24 24 21 22 77 84 81 75 75 71
24 25 26 29 31 25 25 22 24 27 28 30 28 31 27 30 30 24 21 20 19 18 16 19 19 18 17 19 19 20 22 25 22 18 16 17 14 16 35 87 73 56 56 77 78
25 24 23 25 31 28 27 26 26 26 24 26 33 31 31 31 31 32 30 26 24 22 21 19 17 16 17 17 18 18 20 19 21 21 18 18 15 25 29 25 29 51 84 84 86
30 27 26 27 30 34 37 36 32 29 32 32 35 37 38 36 34 34 33 32 29 27 26 25 22 20 19 19 24 21 21 20 21 20 23 23 22 37 45 49 61 80 78 73 54
35 34 30 30 29 28 29 35 32 32 35 37 36 34 36 34 34 34 34 34 32 28 32 26 24 23 24 22 21 22 28 27 22 23 26 24 26 29 36 38 64 78 77 54 43
38 36 34 33 30 28 27 26 27 26 28 29 32 36 39 40 38 34 31 33 36 37 32 30 27 27 24 24 22 26 35 33 27 28 26 29 28 32 28 28 31 38 37 34 42
44 42 39 36 35 32 30 30 27 28 27 29 30 32 36 35 42 45 42 40 42 48 37 30 29 31 26 24 25 26 33 36 36 27 32 36 36 34 34 33 32 32 34 35 31
57 54 54 50 42 37 36 35 34 36 37 36 34 32 32 36 41 47 47 44 63 58 53 38 36 40 30 28 29 26 30 52 46 34 34 44 56 36 30 35 34 32 31 37 44
83 72 68 62 54 50 47 40 42 43 42 42 40 31 33 34 44 46 48 51 51 67 60 53 37 37 45 32 33 35 39 58 50 46 36 57 84 46 41 62 56 53 78 97 99
70 79 75 67 62 54 45 49 50 46 46 47 47 40 33 35 44 53 52 56 62 65 61 62 52 46 52 51 58 49 38 49 46 51 50 59 90 53 57 71 73 78 99 100 100
67 66 65 62 56 53 54 58 54 53 46 40 40 40 39 37 44 48 56 57 56 86 75 64 59 58 62 85 70 48 41 36 48 60 72 81 90 75 61 75 83 84 99 100 100
60 69 71 71 68 66 61 57 57 54 50 48 44 42 45 46 49 54 58 48 55 92 95 84 63 62 78 95 89 62 45 36 45 69 68 96 77 81 74 84 83 88 100 100 100
55 61 69 71 71 66 58 52 51 53 50 51 52 52 50 50 49 48 47 49 66 90 100 95 79 65 89 89 95 74 46 43 61 91 82 75 86 85 83 90 75 99 98 87 75
53 45 50 62 66 66 65 66 62 56 49 50 51 50 49 47 47 44 47 54 81 100 98 98 89 81 87 99 90 60 74 64 54 90 82 71 89 76 87 92 78 86 92 60 46

GFSSW_250_rhum_354.txt.gz
RH
100 76 73 89 86 83 73 58 48 47 49 44 42 45 43 40 37 32 29 28 30 29 28 32 31 27 24 34 76 99 98 98 68 71 68 87 91 99 98 100 86 53 43 55 56
74 100 98 83 69 61 75 59 49 45 46 49 51 46 40 39 37 34 31 29 28 26 24 22 23 22 21 21 28 49 69 94 100 98 98 100 100 100 100 54 38 40 46 49 55
86 89 100 100 100 87 77 66 55 46 41 40 43 47 45 42 40 35 32 30 28 25 23 22 21 22 26 22 26 33 41 50 78 78 69 65 55 54 51 48 45 41 38 47 55
98 98 99 94 95 82 84 85 70 57 51 45 40 32 35 36 37 36 32 28 25 21 20 20 20 27 35 44 33 29 30 45 66 78 68 65 61 48 48 45 40 38 40 44 59
100 89 96 100 94 86 87 85 84 79 77 73 68 65 59 48 37 32 34 33 32 30 29 29 31 36 49 55 47 37 46 55 63 64 66 66 54 45 45 42 38 40 39 39 49
90 100 100 93 97 90 87 77 78 78 77 65 65 64 66 68 63 55 47 45 45 41 29 32 42 43 49 52 45 46 39 44 56 52 61 53 46 39 42 45 44 44 36 43 51
55 66 97 100 99 100 100 99 90 80 78 78 70 71 71 62 58 56 52 51 49 44 43 42 42 47 49 47 43 40 41 39 48 51 56 55 52 52 60 53 49 49 50 51 59
26 39 51 57 67 71 76 97 98 100 100 88 78 77 70 65 65 64 59 55 52 53 50 50 48 43 47 44 41 39 36 37 50 50 48 48 49 60 67 60 51 50 47 50 50
20 20 24 31 30 30 46 46 54 66 80 88 92 95 100 94 85 73 70 70 68 61 60 53 50 46 49 43 38 40 42 48 40 37 41 48 47 61 72 53 43 40 39 40 45
19 16 17 18 19 19 19 21 29 35 41 48 56 57 59 57 60 78 84 79 67 61 67 68 64 69 63 51 49 50 44 44 45 45 53 59 58 71 73 48 41 51 47 52 55
26 25 20 16 16 16 16 16 16 18 20 22 24 24 26 31 45 53 54 52 55 55 55 62 61 67 54 56 53 54 55 59 49 49 56 69 79 88 61 47 50 52 55 54 71
31 28 26 25 22 19 16 15 15 15 14 14 14 17 19 20 22 22 23 26 27 29 34 48 60 58 64 67 66 65 70 72 90 88 96 98 95 74 46 46 51 50 40 43 35
28 30 28 27 24 24 24 21 19 16 15 14 14 13 12 12 12 14 17 19 21 22 23 23 25 28 28 33 38 41 44 44 49 53 68 63 52 46 39 38 36 31 23 18 38
26 24 28 30 28 28 28 26 26 24 21 19 16 14 15 15 15 14 14 14 14 14 16 18 20 21 22 23 24 23 23 25 27 31 34 29 26 29 28 27 24 18 16 28 87
35 27 25 29 28 26 24 25 24 25 25 26 24 21 20 22 22 20 20 18 18 17 15 16 16 15 16 17 17 19 21 22 21 20 21 20 19 21 21 18 16 16 18 17 17
32 31 27 26 26 24 23 25 27 27 26 28 27 26 27 30 30 28 29 28 29 27 26 25 24 22 20 18 16 16 16 17 17 19 20 20 20 24 19 19 17 17 20 26 24
32 29 30 32 34 34 33 32 31 28 27 24 26 30 30 32 31 30 30 30 30 30 31 30 29 28 26 23 20 18 18 17 17 16 18 26 26 23 23 22 20 18 18 22 40
39 37 29 28 29 28 28 30 28 28 33 30 32 33 36 36 36 37 37 33 31 31 32 31 29 26 26 26 25 22 20 19 20 20 22 31 34 28 27 28 27 24 21 21 22
50 41 38 33 31 33 31 27 30 35 36 36 36 37 37 36 34 33 34 34 34 36 34 32 28 28 26 24 24 23 24 22 20 24 22 36 45 33 30 30 30 26 25 24 25
41 51 42 36 34 34 34 33 32 37 36 37 37 32 31 31 30 33 30 30 35 36 32 37 36 34 32 26 26 24 22 24 24 23 26 46 54 45 34 29 34 34 31 30 28
54 42 47 45 42 42 38 37 38 38 37 35 32 35 33 29 26 27 28 28 28 29 31 32 42 41 41 41 37 30 29 33 28 22 28 33 64 58 36 33 47 42 39 35 33
66 62 55 50 39 36 37 40 44 44 40 36 35 35 35 34 32 33 31 31 32 33 32 32 36 40 48 47 56 53 46 37 27 28 20 30 75 64 44 44 60 55 48 48 47
62 71 74 70 71 65 47 47 48 48 50 50 46 41 40 39 38 35 34 36 42 43 34 34 35 40 46 48 54 59 55 42 30 27 28 34 89 77 54 56 72 69 62 76 86
68 72 82 80 76 77 77 74 66 61 65 68 63 56 56 54 49 44 41 40 44 43 40 37 36 42 51 52 55 61 60 58 39 26 49 37 98 84 53 62 80 80 75 91 100
68 69 79 95 90 93 91 89 88 89 85 81 74 67 64 56 52 49 50 51 46 41 43 43 38 39 46 56 52 72 68 61 50 45 51 54 58 93 56 66 80 77 86 96 100
59 70 77 82 85 93 83 74 75 82 78 73 71 66 60 56 52 50 51 50 48 50 46 44 44 47 49 50 54 65 75 64 70 72 73 72 47 87 49 83 76 75 93 100 100
35 45 75 75 71 72 78 78 79 78 74 71 71 70 68 65 64 62 55 55 52 45 44 46 48 48 44 44 51 50 98 85 88 89 84 67 63 51 63 83 76 74 79 99 99